Starlink 31812

operational
NORAD ID: 59800 Int'l Des: 2024-093 Owner: SPXS Country: US Constellation: starlink
LEOCIRCULAR

About Starlink 31812

Description loading...

Live Position

Loading 3D Globe...

Upcoming Passes

Altitude History

Altitude vs Time

uPlot chart will show altitude changes over time

Two-Line Element Set

1 59800U 24093U 25306.44285184 .00005619 00000-0 21363-3 0 9991
2 59800 43.0008 207.6109 0000760 297.2078 62.8696 15.27566702 83304
Epoch: Nov 2, 2025 • Age: 9 hours

Current Status

Altitude 495.4 km
Velocity 7.62 km/s
Sub-Earth Point -41.83°S, 154.85°E
Launch Date May 18, 2024
Age 1.4 years
Type internet

Technical Details

Classification Payload
Mass 730.00 kg
Dry Mass 700.00 kg
Total Mass 730.00 kg
Length 0.30 m
Diameter 4.10 m
Span 29.00 m
Shape Box + pan
Manufacturer SPXS
Bus Type Starlink V2M
Phase Status In Orbit
Owner/State SPXS/US

Large Constellations

Loading constellations...